Location: ????
(32.1228°N, 34.8377°E)
Time: 04:11:21
(UTC+00:00)

CZ-4B R/B - Pass Details

Date: 21 September 2020
Orbit: 391 x 461 km, 97.6° (Epoch: 23 October)

Event Time Altitude Azimuth Distance (km) Brightness Sun altitude
Rises 01:40:54 0° 138° (SE) 2,301 5.3 -23.3°
Reaches altitude 10° 01:43:13 10° 119° (ESE) 1,458 4.6 -22.8°
Maximum altitude 01:45:29 19° 72° (ENE) 1,056 4.2 -22.3°
Drops below altitude 10° 01:47:48 10° 25° (NNE) 1,491 4.5 -21.9°
Sets 01:50:12 0° 7° (N) 2,375 5.4 -21.4°
